This is the latest recevied weather packets stored in our database for station/object W2EH. If no packets are shown the sender has not sent any weather packets the latest 10 day(s).
| Time | Temp. | Humidity | Pressure | Rain* | Wind** | Luminosity | Snow |
|---|---|---|---|---|---|---|---|
| 1777910361 | 22.78° C | 68% | 1013 hPa | 0 mm | - | 224 W/m² | - |
| 1777910058 | 22.78° C | 66% | 1013.3 hPa | 0 mm | - | 87 W/m² | - |
| 1777909755 | 22.22° C | 68% | 1013.1 hPa | 0 mm | - | 81 W/m² | - |
| 1777909452 | 22.22° C | 66% | 1013.2 hPa | 0 mm | - | 103 W/m² | - |
| 1777909150 | 22.78° C | 66% | 1013.5 hPa | 0 mm | - | 123 W/m² | - |
| 1777908848 | 22.78° C | 66% | 1013.3 hPa | 0 mm | - | 643 W/m² | - |
| 1777908544 | 22.22° C | 66% | 1013.3 hPa | 0 mm | - | 567 W/m² | - |
| 1777908241 | 22.22° C | 67% | 1013.4 hPa | 0 mm | - | 618 W/m² | - |
| 1777907938 | 22.22° C | 69% | 1013.6 hPa | 0 mm | - | 463 W/m² | - |
| 1777907633 | 21.67° C | 69% | 1013.8 hPa | 0 mm | - | 580 W/m² | - |
| 1777907329 | 21.11° C | 69% | 1013.5 hPa | 0 mm | - | 521 W/m² | - |
| 1777907025 | 21.11° C | 70% | 1013.5 hPa | 0 mm | - | 454 W/m² | - |
| 1777906723 | 20.56° C | 70% | 1013.6 hPa | 0 mm | - | 153 W/m² | - |
| 1777906419 | 20.56° C | 71% | 1013.7 hPa | 0 mm | - | 106 W/m² | - |
| 1777906116 | 20.56° C | 71% | 1013.6 hPa | 0 mm | - | 184 W/m² | - |
| 1777905812 | 20.56° C | 72% | 1013.7 hPa | 0 mm | - | 119 W/m² | - |
| 1777905510 | 20° C | 71% | 1013.7 hPa | 0 mm | - | 65 W/m² | - |
| 1777905206 | 20° C | 72% | 1013.8 hPa | 0 mm | - | 129 W/m² | - |
| 1777904904 | 20° C | 72% | 1013.6 hPa | 0 mm | - | 62 W/m² | - |
| 1777904601 | 20° C | 72% | 1013.4 hPa | 0 mm | - | 51 W/m² | - |
| 1777904298 | 20° C | 72% | 1013.4 hPa | 0 mm | - | 69 W/m² | - |
| 1777903995 | 19.44° C | 73% | 1013.7 hPa | 0 mm | - | 45 W/m² | - |
| 1777903692 | 19.44° C | 73% | 1013.7 hPa | 0 mm | - | 41 W/m² | - |
| 1777903388 | 18.89° C | 74% | 1013.5 hPa | 0 mm | - | 44 W/m² | - |
| 1777903084 | 18.89° C | 74% | 1013.7 hPa | 0 mm | - | 37 W/m² | - |
* Rain latest hour (hover to see other rain measurements)
** Current wind speed in m/s (hover to see current wind gust speed)